Tracking 29892 objects as of 21-Nov-2024
HD Live streaming from Space Station
objects crossing your sky now

STARLINK-4551

Track STARLINK-4551 now!
10-day predictions
STARLINK-4551 is classified as:


NORAD ID: 53575
Int'l Code: 2022-101BA
Perigee: 545.9 km
Apogee: 547.9 km
Inclination: 53.2 °
Period: 95.4 minutes
Semi major axis: 6917 km
RCS: Unknown
Launch date: August 19, 2022
Source: United States (US)
Launch site: AIR FORCE EASTERN TEST RANGE (AFETR)
Your satellite tracking list
Your tracking list is empty




NASA's NSSDC Master Catalog

Two Line Element Set (TLE):
1 53575U 22101BA  24325.57972202  .00000453  00000-0  46546-4 0  9992
2 53575  53.2165  22.2709 0001434  96.1091 264.0064 15.08844484124879
Source of the keplerian elements: AFSPC